Theta_e
318 321 320 320 321 322 321 323 324 322 322 321 321 320 319 319 321 331 339 339 344 347 343 342 332 337 337 333 331 330 333 339 340 340 340 338 336 336 335 334 331 330 331 332 333 334 335 334 335
319 320 320 321 323 323 324 326 322 321 320 319 319 319 320 321 327 329 334 337 342 345 347 344 335 338 337 333 331 330 332 338 340 340 339 337 336 336 335 335 332 329 331 332 333 333 335 336 335
318 320 321 324 324 324 325 323 322 320 320 321 321 321 321 320 327 330 333 342 344 344 349 345 338 339 337 333 332 331 331 334 338 339 337 335 334 334 335 334 332 329 330 331 332 333 334 336 335
320 321 321 324 325 325 326 323 322 323 323 322 322 323 322 324 326 332 335 344 346 346 349 348 340 340 336 334 333 332 332 331 333 334 333 333 333 333 333 332 329 328 330 331 331 333 334 334 333
319 321 324 325 325 326 326 326 324 324 324 323 323 323 324 327 329 331 338 344 346 348 348 348 342 339 336 334 333 332 331 331 331 331 331 331 332 332 331 330 327 328 328 330 331 332 333 332 330
319 321 323 324 325 326 327 325 324 324 324 324 324 324 325 327 326 328 336 336 348 348 348 348 346 339 336 334 333 332 332 332 332 331 331 331 331 331 330 328 327 328 328 329 330 331 332 330 327
318 320 321 323 323 323 325 325 324 323 323 323 322 323 323 324 323 322 323 335 339 348 350 350 348 343 336 335 334 333 332 333 333 332 332 332 332 331 329 328 328 329 329 329 330 330 329 328 327
318 320 321 320 320 321 323 322 322 321 321 322 322 322 324 322 322 321 321 322 342 341 349 348 347 342 337 335 335 334 333 333 333 333 333 332 332 331 329 328 329 330 330 330 329 329 327 326 327
316 317 317 319 319 320 321 321 321 319 319 318 319 321 321 320 321 318 317 318 321 333 345 346 346 344 337 336 336 335 334 334 333 333 333 333 332 331 330 329 329 330 332 331 330 328 327 326 326
314 316 316 317 317 317 318 318 316 315 315 315 315 317 314 314 314 313 313 314 317 320 323 344 345 345 342 337 337 336 335 335 334 333 333 333 332 332 331 330 330 330 333 332 330 329 328 327 325
312 313 315 315 314 313 313 313 312 311 312 312 312 312 311 312 311 311 313 314 315 317 319 333 344 345 345 343 344 340 336 336 335 335 334 333 333 334 334 336 333 332 332 332 331 330 328 327 329
311 312 312 312 311 311 312 311 311 310 311 310 310 310 310 310 311 312 312 312 313 315 316 318 342 344 345 345 345 345 341 337 336 335 335 334 333 336 338 337 337 336 333 332 332 331 329 328 335
312 312 312 312 312 311 311 311 311 311 311 311 310 310 310 310 310 310 310 310 310 311 314 317 318 343 343 343 345 346 345 341 338 337 336 337 336 337 337 338 337 336 336 336 335 335 334 331 333
311 311 311 311 311 311 311 311 310 310 311 311 310 310 310 310 310 310 310 310 310 310 311 313 316 318 336 340 343 344 343 343 342 340 339 337 338 337 338 338 338 336 337 335 335 336 336 334 335
312 311 311 312 312 311 311 310 312 312 311 311 310 310 310 310 310 310 310 310 310 310 311 311 311 315 321 338 340 341 341 342 343 342 342 341 337 338 338 337 338 337 337 337 335 335 336 334 334
311 312 312 313 312 312 311 310 313 311 311 311 310 310 311 311 312 313 313 313 313 313 314 312 311 311 314 333 336 336 340 343 340 342 339 340 341 336 342 340 336 336 336 337 336 335 335 334 333
314 313 314 314 314 313 311 311 312 311 311 311 311 314 313 312 312 310 309 309 311 312 313 314 312 318 319 321 337 337 338 339 341 342 342 336 336 335 339 341 338 337 338 340 337 335 335 334 333
313 312 312 311 311 312 311 311 312 311 311 314 313 311 310 309 308 307 306 306 306 308 312 312 314 315 318 319 322 337 336 339 340 341 341 338 332 332 335 340 339 341 336 337 336 335 336 336 334
310 309 309 310 312 311 311 311 311 311 313 312 310 309 307 306 305 304 303 303 303 304 307 312 313 314 315 316 318 327 334 333 338 341 340 339 336 332 331 339 337 338 338 336 335 335 335 337 333
310 310 311 312 312 312 311 311 311 314 312 309 307 306 305 303 302 301 300 299 299 300 301 306 310 312 312 312 315 321 326 334 335 339 338 339 338 337 330 334 336 334 330 338 338 340 335 333 333
311 312 312 312 311 311 311 311 311 313 309 308 306 304 302 300 299 299 298 297 297 297 299 300 305 309 310 307 310 315 321 334 334 337 339 339 338 334 335 329 338 336 328 328 335 340 337 331 332
311 312 311 311 311 312 312 310 311 314 310 307 304 302 300 298 298 297 296 295 295 296 297 299 302 307 308 309 310 313 318 326 335 336 339 337 337 338 334 334 329 335 331 327 328 332 329 330 331
311 312 311 312 311 312 313 312 314 312 309 306 303 301 299 297 296 296 295 294 293 294 296 298 300 302 307 309 310 314 316 322 334 336 338 337 336 334 335 332 330 335 335 331 330 334 334 331 333
311 311 313 315 314 315 314 312 313 309 305 304 301 300 298 296 295 294 293 292 291 293 296 298 299 300 304 309 311 314 318 323 333 335 338 337 338 337 336 336 335 331 335 334 333 333 336 334 333
312 314 317 318 318 316 313 312 311 306 304 302 300 299 297 295 294 293 292 291 290 292 295 297 298 299 303 307 309 314 320 327 331 334 330 332 336 337 336 338 338 337 336 336 338 337 335 337 333
314 314 315 315 313 315 314 316 310 305 302 301 299 298 296 294 293 292 291 290 290 291 294 295 297 297 300 304 306 314 321 325 329 329 329 324 322 322 323 333 336 335 336 335 336 337 336 335 334
314 314 314 315 314 315 314 311 309 306 303 299 298 296 294 293 292 291 291 290 290 291 293 294 294 297 298 301 303 307 318 324 325 324 322 322 325 319 319 332 334 334 333 334 334 335 334 334 334
312 314 315 315 315 316 315 317 312 305 302 300 298 295 294 293 291 291 290 290 290 291 292 293 293 296 297 299 300 302 315 317 321 323 323 319 322 324 325 329 330 331 333 332 331 331 332 333 334
314 313 313 314 316 317 317 314 304 301 300 299 297 295 293 292 291 290 290 290 290 291 292 292 293 293 296 297 297 300 311 315 316 317 318 317 322 323 325 326 328 328 331 332 330 331 330 330 330
315 315 316 318 316 317 319 312 303 301 299 297 295 294 293 292 291 290 289 289 290 289 290 290 292 292 294 296 296 300 305 308 312 309 317 315 318 318 318 322 322 325 326 328 328 328 328 328 329
Wind_Speed
4 7 13 12 6 7 13 16 6 4 6 16 11 10 9 10 6 5 14 16 11 10 10 10 18 18 16 16 15 14 14 16 16 14 12 9 9 8 7 8 7 8 8 9 9 8 7 5 4
4 2 8 10 7 10 11 14 8 13 14 7 3 4 8 5 15 5 18 20 11 6 13 13 20 19 17 17 16 15 14 15 15 14 13 10 10 9 8 8 7 8 8 8 7 7 6 5 4
2 4 9 5 11 12 14 10 15 14 10 7 6 4 5 8 14 11 20 18 13 4 15 14 21 21 18 17 17 16 15 15 15 14 13 11 11 9 8 8 7 8 8 8 7 6 5 4 4
5 6 9 7 16 18 19 6 5 2 3 7 3 6 6 6 6 11 16 16 9 1 9 13 22 21 19 18 17 16 15 15 15 15 14 12 12 11 9 9 8 8 8 8 7 6 5 5 3
7 9 10 14 16 17 17 15 4 8 10 7 5 7 9 13 9 13 13 13 6 3 10 10 12 20 20 18 17 16 15 15 15 15 14 13 13 12 11 10 9 9 8 8 6 6 5 5 4
13 13 11 12 16 19 16 8 8 6 10 10 9 6 4 10 14 15 14 16 5 4 9 10 12 19 22 20 18 17 16 15 15 15 15 15 14 13 12 11 11 10 9 8 7 6 6 5 4
12 10 15 18 17 18 18 1 4 9 12 9 10 5 5 14 12 13 14 17 15 4 9 11 11 19 23 21 20 18 17 16 16 16 16 16 15 15 14 13 12 11 10 9 8 8 7 6 5
14 10 18 15 15 17 14 3 8 8 10 12 11 5 9 20 12 12 14 13 12 11 6 12 12 17 24 23 22 20 18 18 17 17 18 17 17 16 16 15 14 13 11 10 9 8 8 7 6
9 8 12 16 13 11 20 15 8 15 13 15 10 10 15 18 12 17 20 17 13 13 8 13 12 11 25 25 24 23 21 20 20 20 19 19 19 19 18 17 16 14 12 11 10 9 9 9 8
7 7 15 15 12 14 14 13 15 17 17 18 18 15 19 20 22 22 24 22 19 14 14 14 14 15 19 24 26 26 24 24 23 23 22 22 21 21 20 19 18 16 14 12 11 10 10 10 8
13 12 14 18 14 12 14 16 17 20 16 20 22 24 25 22 22 21 21 20 19 18 14 17 17 17 19 18 22 23 28 27 27 26 26 24 23 20 19 18 19 18 18 16 14 13 12 11 6
9 14 17 14 13 13 11 16 19 20 23 23 23 22 20 16 16 19 19 20 20 20 18 19 20 18 22 22 24 25 23 31 31 30 28 27 25 23 21 23 20 20 20 19 16 15 14 12 14
14 15 18 15 12 13 16 18 18 24 22 16 14 12 15 14 17 20 23 27 27 26 20 19 17 21 23 27 25 28 26 24 26 29 30 28 28 26 28 24 24 20 20 17 17 12 9 12 13
19 15 18 20 20 18 16 12 15 19 11 9 9 12 14 18 22 22 21 23 24 26 28 21 21 20 28 28 31 25 29 24 27 27 28 29 29 28 28 27 25 24 21 20 19 18 17 14 17
12 14 17 21 15 2 5 11 9 6 3 9 13 19 22 20 19 21 21 21 23 24 25 29 25 23 25 31 30 36 29 34 28 32 29 30 31 30 29 27 30 27 23 24 23 22 23 20 20
17 17 15 11 10 11 5 9 9 17 17 18 18 18 18 17 17 20 26 28 25 25 25 25 28 30 30 31 35 34 41 29 35 38 39 36 33 34 29 30 27 29 24 24 25 25 25 22 19
16 12 11 6 12 4 4 12 13 14 16 18 14 21 23 26 28 33 31 32 28 27 30 33 27 24 21 15 31 38 37 42 31 34 36 41 43 37 33 30 25 25 28 24 25 25 26 26 24
10 8 13 14 13 11 13 15 13 16 17 14 21 21 22 24 27 32 35 33 33 32 25 30 25 32 28 28 17 36 42 40 41 40 35 37 38 43 40 32 37 29 29 33 28 27 25 24 20
8 11 14 13 11 12 13 14 15 16 12 20 20 20 22 24 26 28 33 36 34 32 29 27 28 26 30 27 27 17 41 41 44 43 40 38 40 36 45 39 38 38 29 27 30 31 34 30 25
9 11 13 13 10 12 15 14 15 15 16 20 19 22 24 28 30 30 31 33 33 34 33 31 32 33 35 36 31 29 28 45 46 43 45 42 40 38 36 45 39 36 41 31 30 31 28 30 25
12 12 11 12 13 15 18 17 5 19 22 19 20 20 21 25 30 31 31 33 33 34 33 31 32 36 40 40 37 40 36 35 46 46 48 41 39 40 39 42 42 38 34 35 34 34 32 29 28
11 3 5 11 9 9 13 8 11 11 13 16 23 24 25 27 28 30 31 33 34 32 33 34 32 32 35 34 33 36 38 34 44 51 44 46 45 45 45 40 45 38 37 35 35 35 34 30 33
8 5 8 12 12 14 17 10 7 7 11 15 19 23 24 25 28 29 30 31 32 31 30 29 28 28 30 31 29 32 37 40 37 49 45 45 48 50 48 42 35 37 37 34 31 30 32 32 30
7 10 15 15 12 11 18 9 6 4 7 11 17 20 23 26 27 27 29 31 31 28 25 23 20 27 25 25 21 26 31 34 37 43 44 48 38 37 38 34 26 27 35 30 25 30 32 31 33
9 10 5 5 7 10 6 7 5 7 8 12 13 18 20 23 28 29 32 33 33 30 24 22 19 26 18 12 14 15 18 16 22 34 19 22 28 34 19 35 26 22 22 27 27 28 31 30 28
16 9 5 5 7 11 19 5 6 12 13 13 14 16 18 23 26 29 31 34 34 31 26 24 22 24 15 8 7 1 11 11 13 8 19 37 12 27 32 11 18 22 23 29 27 29 27 30 31
7 8 7 8 13 10 4 6 9 10 12 12 15 18 20 24 27 29 32 34 36 36 30 30 31 21 18 11 9 10 15 13 8 9 11 10 13 14 27 15 10 14 18 27 29 31 29 33 33
11 2 3 5 4 6 5 6 4 8 10 10 13 17 21 22 28 30 32 36 39 37 33 30 31 24 24 17 18 20 24 27 21 15 11 10 7 10 11 11 13 13 14 15 15 21 24 29 32
9 9 8 8 9 5 6 3 3 5 6 8 12 15 18 23 26 28 31 35 38 40 37 35 33 35 30 27 27 33 34 32 30 27 23 18 15 6 12 9 12 20 16 15 13 15 15 21 29
8 9 10 5 7 7 5 2 6 4 7 9 11 14 16 19 24 26 30 36 39 41 40 38 35 38 31 30 41 40 38 37 33 35 29 21 22 14 11 8 3 8 15 13 17 16 18 22 24
Wind_Direction
295 346 337 291 250 227 264 260 238 60 105 46 30 8 345 325 308 48 76 34 1 317 264 250 209 190 184 177 174 174 177 182 185 186 190 191 184 179 168 165 161 162 163 165 166 170 173 175 167
292 13 282 278 256 273 262 252 143 66 67 56 2 289 242 250 23 22 3 355 355 305 256 243 214 196 187 180 176 174 177 184 189 193 195 195 190 188 180 176 174 175 173 178 175 177 176 177 175
267 315 275 237 241 260 278 23 58 67 61 31 337 74 336 318 37 10 356 354 343 292 245 253 212 197 190 185 182 177 179 185 193 197 202 201 194 194 191 189 189 185 183 191 189 187 185 187 176
294 248 256 258 266 279 291 101 67 1 346 88 5 298 13 68 48 20 357 353 9 185 239 270 199 192 191 189 188 183 183 190 196 200 203 205 202 198 198 196 199 197 194 197 198 199 193 194 201
252 268 252 254 258 262 274 281 22 318 319 318 336 302 318 81 56 29 4 11 48 243 235 258 215 197 193 194 194 194 190 195 200 204 205 206 206 203 205 203 200 204 201 205 207 206 205 207 225
252 248 266 265 262 253 242 47 24 292 284 288 306 288 52 84 46 35 4 7 30 310 265 249 244 212 198 197 199 201 200 201 203 206 205 206 207 208 209 209 207 205 207 209 209 216 218 225 222
254 277 265 273 286 297 299 154 242 341 344 346 359 323 291 57 32 17 13 1 9 188 284 274 271 221 205 199 203 206 206 207 207 207 206 209 209 211 212 212 212 212 211 210 215 219 221 218 209
261 288 277 271 275 277 298 68 38 343 331 344 338 268 294 3 5 358 355 348 334 1 240 265 279 221 207 204 205 209 210 211 210 210 210 209 211 213 215 214 215 217 216 214 215 218 213 205 196
271 266 265 260 310 341 6 4 16 360 340 318 310 302 306 326 336 341 334 328 326 332 310 280 264 241 212 212 209 210 211 213 212 213 213 214 214 213 214 216 218 220 220 220 220 214 209 205 203
230 260 260 303 7 351 347 346 338 327 311 302 307 303 324 330 332 331 322 312 311 311 302 281 274 245 231 216 217 215 214 214 215 216 216 216 218 219 219 217 220 218 221 225 223 220 211 210 212
244 250 273 304 337 339 321 316 322 317 302 303 316 313 313 319 321 313 314 316 313 306 304 281 277 265 235 229 233 226 220 217 217 219 220 219 218 220 217 221 220 221 220 224 226 224 219 212 201
260 273 280 296 289 293 296 298 291 288 284 294 299 304 300 310 315 317 321 319 315 323 304 299 269 262 238 233 221 238 240 224 221 221 222 218 217 209 216 217 223 224 225 227 231 232 227 211 186
280 270 276 275 287 275 276 277 285 280 283 286 292 309 316 322 318 315 311 308 308 306 305 296 309 267 255 237 224 224 236 235 228 227 224 221 216 212 218 219 221 223 223 219 225 243 230 229 197
293 299 282 278 274 271 268 296 290 275 314 337 329 311 306 309 313 313 310 308 303 300 295 293 290 293 269 247 229 229 225 219 230 227 228 223 220 211 223 217 217 219 213 216 213 214 226 224 221
291 283 280 263 250 324 311 271 269 148 12 292 303 307 307 312 313 315 324 323 317 304 297 288 287 288 292 260 247 227 235 228 221 210 215 227 221 206 223 222 219 218 214 215 210 214 220 222 234
263 260 269 107 164 211 198 290 288 330 320 320 309 298 307 329 357 11 358 346 326 339 340 304 289 286 283 270 251 243 224 234 223 227 224 214 215 206 212 223 224 222 215 223 221 212 216 217 219
234 245 227 217 215 327 244 285 286 307 314 302 324 28 7 358 350 345 342 336 319 315 325 326 293 291 282 282 254 248 236 223 230 235 232 227 220 210 204 215 225 220 209 214 224 218 216 220 220
335 303 311 300 300 314 295 291 307 303 302 35 33 18 4 354 346 339 326 328 321 303 302 301 312 304 281 280 297 242 240 228 227 222 227 238 230 217 206 213 214 213 213 218 220 225 220 221 209
309 294 282 280 290 302 292 293 294 292 74 49 30 15 358 348 339 333 327 319 320 317 294 286 294 297 286 287 301 289 240 238 228 225 223 226 237 229 208 213 220 215 214 219 224 220 220 214 213
274 266 269 272 290 305 293 301 276 98 76 55 31 7 357 345 337 332 328 326 322 318 314 292 276 282 276 285 291 296 278 242 235 224 216 222 225 233 221 211 227 226 214 207 219 218 224 223 225
247 252 280 301 312 285 267 263 284 94 75 44 26 8 359 348 337 333 330 328 328 323 320 313 291 283 273 277 276 276 266 246 236 226 217 217 213 229 230 217 214 226 221 219 220 223 225 222 220
262 39 310 287 287 281 327 290 293 125 63 28 14 7 0 350 342 336 333 331 329 324 312 305 302 289 280 275 279 280 275 268 234 225 218 213 212 213 227 223 214 219 228 224 225 230 232 226 220
252 352 287 280 274 282 273 254 115 65 29 6 4 7 359 352 346 340 338 333 333 327 321 314 309 301 290 278 279 282 277 263 237 224 221 210 219 220 222 226 218 211 227 229 224 233 235 231 220
292 282 266 243 246 255 266 231 111 29 4 356 7 2 0 358 348 348 343 342 338 335 331 327 328 322 298 284 298 280 278 268 243 227 223 204 210 209 216 219 214 216 225 233 223 226 243 240 228
230 265 290 222 216 239 254 289 58 88 35 25 12 357 2 357 355 355 351 353 351 349 346 346 344 338 313 292 304 273 265 267 248 232 257 135 183 194 210 208 199 211 221 230 230 223 239 243 239
207 255 270 307 289 311 320 355 123 112 61 23 16 2 357 0 359 0 357 2 2 1 1 4 359 351 339 304 350 187 238 212 224 142 217 238 243 238 243 17 185 212 221 232 233 239 240 252 251
222 231 266 291 287 267 201 99 159 76 37 27 8 2 3 2 2 4 6 13 12 12 14 15 9 12 4 14 45 79 119 147 162 150 140 128 202 201 213 252 195 219 235 233 235 240 246 250 249
247 238 263 234 268 262 290 144 110 8 1 6 11 4 3 2 6 8 11 16 22 22 21 22 22 22 26 53 56 73 94 97 103 126 145 163 159 178 238 233 221 224 233 232 247 249 246 247 251
191 228 231 262 256 273 290 87 32 33 18 17 13 9 1 8 9 10 15 20 25 30 27 25 26 27 36 42 63 72 81 84 88 92 97 94 149 206 242 240 247 241 237 238 234 237 249 261 252
210 234 247 232 259 278 292 114 85 101 48 22 18 9 7 11 14 15 19 22 26 31 28 24 30 31 37 39 57 69 76 82 80 77 82 81 86 97 85 116 237 233 242 241 237 248 252 254 255